Starlink 5067

operational
NORAD ID: 55653 Int'l Des: 2023-021 Owner: SPXS Country: US Constellation: starlink
LEOCIRCULAR

Über Starlink 5067

Beschreibung wird geladen...

Live-Position

3D-Globus wird geladen...

Nächste Überflüge

Höhenverlauf

Altitude vs Time

uPlot chart will show altitude changes over time

Zweizeiliger Elementsatz

1 55653U 23021AB 25261.03592525 -.00000139 00000-0 -38315-5 0 9999
2 55653 69.9961 259.6090 0002903 271.7557 88.3269 14.98331313142936
Epoch: 18. Sept. 2025 • Age: 12 hours

Aktueller Status

Höhe 576.4 km
Geschwindigkeit 7.58 km/s
Subsatellitenpunkt 30.21°N, 122.52°W
Startdatum 17. Feb. 2023
Alter 2.5 years
Typ internet

Technische Details

Klassifizierung Payload
Masse 305.00 kg
Trockenmasse 290.00 kg
Gesamtmasse 305.00 kg
Länge 0.20 m
Durchmesser 2.80 m
Spannweite 9.00 m
Form Box + pan
Hersteller SPXS
Bus-Typ Starlink
Phasenstatus In Orbit
Besitzer/Staat SPXS/US

Große Konstellationen

Loading constellations...